ONEWEB-0024 (45137 NORAD) Tracking and Keplerian Element Data

This shows tracking and keplerian element data for the satellite.

Feedback or suggestion? Click here.




ElementValue
Catalog45137
NameONEWEB-0024
Epoch Orbit841
Epoch Day88.09308884
Epoch Year2020
RAAN147.304
Inclination87.5077
Eccentricity0.0022193
Argument of Perigee120.2405
Mean Anonmoly240.1029
Mean Motion14.99245844
Decay Rate-0.00227156
L11 45137U 20008G 20088.09308884 -.00227156 00000-0 -19157-1 0 9997
L22 45137 87.5077 147.3040 0022193 120.2405 240.1029 14.99245844 8417

Live tracking and technical data element details for ONEWEB-0024 (NORAD 45137). ONEWEB-0024 can be tracked NOW for your location showing map with azimuth and elevation plus other details from your city location.

Track the satellite on the map from your city or location and see movement details for azimuth, elevation, latitude, longitude, range, height, and movement on the map or in text.







IsCatalogInMostPopularTable: catalog: 45137, numindb: 9
Update: records affected: 1



GetName: 45137 ONEWEB-0024

Hit Count: updated at: Sat, 28 Mar 2020 20:43:51 GMT